Regional Weather Roundup
Issued by NWS Raleigh/Durham, NC

Home | Current Version | Previous Version | Text Only | Print | Product List | Glossary On
Versions: 1 2 3 4 5 6 7 8 9 10 11 12 13 14 15 16 17 18 19 20 21 22 23 24 25 26 27 28 29 30 31 32 33 34 35 36 37 38 39 40 41 42 43 44 45 46 47 48 49 50
000
ASUS42 KRAH 310510
RWRRAH
NORTH CAROLINA WEATHER ROUNDUP
NATIONAL WEATHER SERVICE RALEIGH NC
100 AM EDT FRI JUL 31 2015

NOTE: "FAIR" INDICATES FEW OR NO CLOUDS BELOW 12,000 FEET WITH NO
SIGNIFICANT WEATHER AND/OR OBSTRUCTIONS TO VISIBILITY.

NCZ001-053-055-056-065-067-310600-
WESTERN NORTH CAROLINA

CITY           SKY/WX    TMP DP  RH WIND       PRES   REMARKS
ASHEVILLE      CLEAR     75  64  68 N10       30.08R
JEFFERSON      CLEAR     67  56  70 NW6       30.14S
MORGANTON      CLEAR     76  67  73 N3        30.05R
HICKORY        CLEAR     77  66  68 NE5       30.00R
RUTHERFORDTON  PTCLDY    81  67  63 CALM      29.99S
MOUNT AIRY     PTCLDY    76  64  66 NW5       30.03S
BOONE          CLEAR     68  58  71 NW13      30.14S
$$

NCZ021-022-025-041-071-084-088-310600-
CENTRAL NORTH CAROLINA

CITY           SKY/WX    TMP DP  RH WIND       PRES   REMARKS
CHARLOTTE      MOCLDY    80  71  74 NE5       29.96R
GREENSBORO     PTCLDY    76  67  73 N7        29.97S
WINSTON-SALEM  PTCLDY    77  66  68 N8        29.99S
RALEIGH-DURHAM MOCLDY    82  74  76 VRB3      29.93R
FORT BRAGG     PTCLDY    80  74  83 S3        29.89F
FAYETTEVILLE   PTCLDY    79  74  84 SW7       29.90S
BURLINGTON     MOCLDY    80  70  71 N7        29.95S
LAURINBURG     PTCLDY    77  73  87 CALM      29.91F
$$

NCZ011-015-027-028-043-044-047-080-103-310600-
NORTHEASTERN NORTH CAROLINA

CITY           SKY/WX    TMP DP  RH WIND       PRES   REMARKS
ROCKY MT-WILSO PTCLDY    78  76  93 S5        29.90F
GREENVILLE     MOCLDY    81  77  89 SW5       29.93R
WASHINGTON     CLEAR     78  74  88 S3        29.90F
ELIZABETH CITY PTCLDY    79  76  90 S7        29.90S
MANTEO         PTCLDY    82  75  81 S13       29.90F
CAPE HATTERAS  PTCLDY    82  76  81 S8        29.90F
$$

NCZ078-087-090-091-093-098-101-310600-
SOUTHEASTERN NORTH CAROLINA

CITY           SKY/WX    TMP DP  RH WIND       PRES   REMARKS
LUMBERTON      MOCLDY    78  75  90 CALM      29.89F
GOLDSBORO      PTCLDY    80  76  90 VRB2      29.89S
KINSTON        PTCLDY    79  76  90 CALM      29.91S
KENANSVILLE    CLEAR    N/A N/A N/A CALM      29.91F
NEW BERN       CLEAR     76  73  91 CALM      29.91F
CHERRY POINT   PTCLDY    76  74  93 CALM      29.91S
BEAUFORT       PTCLDY    77  76  96 CALM      29.89F
JACKSONVILLE   CLEAR     77  74  90 CALM      29.89F
WILMINGTON     CLEAR     79  76  90 SW3       29.90F
$$




USA.gov is the U.S. government's official web portal to all federal, state and local government web resources and services.